Regional Weather Roundup
Issued by NWS

Home | Current Version | Previous Version | Graphics & Text | Print | Product List | Glossary Off
Versions: 1 2 3 4 5 6 7 8 9 10 11 12 13 14 15 16 17 18 19 20 21 22 23 24 25 26 27 28 29 30 31 32 33 34 35 36 37 38 39 40 41 42 43 44 45 46 47 48 49 50

000
ASUS43 KDMX 171101
RWRIA

WEATHER ROUNDUP FOR IOWA
NATIONAL WEATHER SERVICE DES MOINES IA
500 AM CST FRI NOV 17 2017

NOTE: "FAIR" INDICATES FEW OR NO CLOUDS BELOW 12,000 FEET WITH NO
SIGNIFICANT WEATHER AND/OR OBSTRUCTIONS TO VISIBILITY.

* - THESE STATIONS ARE NOT NWS STATIONS...THUS NOT UNDER NWS
QUALITY CONTROL.  THEY ALSO DO NOT REPORT WEATHER SUCH
AS PRECIPITATION OR FOG.

IAZ001>003-012>014-020>022-031>034-043>046-171200-
   NORTHWEST IOWA

CITY           SKY/WX    TMP DP  RH WIND       PRES   REMARKS
CARROLL *      CLOUDY    45  36  70 SE15      29.74F
CHEROKEE *     CLOUDY    44  34  68 S14G21    29.68F
DENISON *      CLOUDY    46  36  66 S15G24    29.71F
LE MARS *      CLOUDY    48  37  66 S17G24    29.63S
ORANGE CITY *  CLOUDY    45  36  70 S13G21    29.63F
SHELDON *      CLOUDY    43  34  70 S20       29.62S
SIOUX CITY     CLOUDY    44  33  65 SE13      29.65F
SPENCER        CLOUDY    40  30  67 S20       29.68F WCI  30
STORM LAKE *   CLOUDY    43  32  65 SE17G28   29.68F
$$

IAZ055>058-069>071-079>083-090>094-171200-
   SOUTHWEST IOWA

CITY           SKY/WX    TMP DP  RH WIND       PRES   REMARKS
ATLANTIC *     CLOUDY    46  37  71 S14       29.74F
AUDUBON *      CLOUDY    45  37  76 S8        29.75F
CLARINDA *     CLOUDY    48  37  66 S10         N/A
COUNCIL BLFS * CLOUDY    48  39  71 S15       29.71F
CRESTON *      CLOUDY    43  34  70 SE16      29.78F
HARLAN  *      CLOUDY    46  37  71 S12       29.75F
LAMONI         CLOUDY    44  33  65 SE15G21   29.82F
RED OAK *      CLOUDY    48  39  71 S13G22    29.74F
SHENANDOAH *   CLOUDY    50  41  71 SE8       29.74F
$$

IAZ047>049-059>061-072>074-084-171200-
   CENTRAL IOWA

CITY           SKY/WX    TMP DP  RH WIND       PRES   REMARKS
AMES           CLOUDY    38  32  79 SE13      29.84F WCI  30
ANKENY *       CLOUDY    39  32  75 SE12      29.86S WCI  32
BOONE *        CLOUDY    37  32  81 SE16G23   29.81S WCI  28
CHARITON *     CLOUDY    43  34  70 S15       29.85S
DES MOINES     CLOUDY    43  32  65 SE14      29.84S
GRINNELL*      CLOUDY    35  32  89 SE15      29.90F WCI  25
KNOXVILLE *    CLOUDY    39  32  75 SE10G17   29.86R WCI  32
MARSHALLTOWN   MOCLDY    35  31  85 SE21      29.87F WCI  24
NEWTON *       CLOUDY    36  32  87 SE16      29.88S WCI  26
PELLA *        CLOUDY    38  32  80 SE12      29.90S WCI  30
PERRY *        CLOUDY    41  32  70 SE10      29.80F
$$

IAZ004>006-015-016-023>025-035-036-171200-
   NORTH CENTRAL IOWA

CITY           SKY/WX    TMP DP  RH WIND       PRES   REMARKS
ALGONA *       CLOUDY    37  32  81 S23G31    29.72F WCI  26
CLARION *      CLOUDY    36  36 100 SE24G31   29.78F WCI  24
ESTHERVILLE    CLOUDY    35  30  82 S22G29    29.68F WCI  23
FORT DODGE *   CLOUDY    39  30  70 SE14      29.77F WCI  31
MASON CITY     CLOUDY    32  29  88 SE24G31   29.80F WCI  19
FOREST CITY *    N/A     34  32  93 SE18G28   29.77F WCI  23
WEBSTER CITY * CLOUDY    36  32  87 SE21      29.78F WCI  24
IOWA FALLS *   CLOUDY    35  32  90 SE16      29.86F WCI  25
$$

IAZ007>011-017>019-026>030-037>042-050>054-066-171200-
   NORTHEAST IOWA

CITY           SKY/WX    TMP DP  RH WIND       PRES   REMARKS
CEDAR RAPIDS   CLOUDY    34  31  88 SE18G25   29.94F WCI  23
CHARLES CITY * CLOUDY    34  34 100 SE17G26   29.87F WCI  23
CLINTON *      CLOUDY    32  29  88 SE16      30.06F WCI  21
DECORAH *      CLOUDY    34  30  86 SE16G25   29.91F WCI  23
DUBUQUE        CLOUDY    31  29  92 S15G25    30.02F WCI  20
MONTICELLO *   CLOUDY    34  30  86 SE14G21   29.99F WCI  24
OELWEIN *      CLOUDY    32  32 100 SE22      29.94S WCI  19
WATERLOO       CLOUDY    34  29  82 SE18G26   29.90F WCI  23
$$

IAZ064-065-067-068-078-171200-
   EAST CENTRAL IOWA

CITY           SKY/WX    TMP DP  RH WIND       PRES   REMARKS
DAVENPORT      CLOUDY    33  29  85 SE13      30.06F WCI  24
IOWA CITY      CLOUDY    36  31  82 SE15      30.00F WCI  27
MT. PLEASANT * CLOUDY    34  32  92 SE15      29.97F WCI  24
MUSCATINE *    CLOUDY    34  30  86 SE10G18   30.03S WCI  26
QUAD CITIES    CLOUDY    34  29  82 SE9       30.04F WCI  27
$$

IAZ062-063-075>077-085>089-095>099-171200-
   SOUTHEAST IOWA

CITY           SKY/WX    TMP DP  RH WIND       PRES   REMARKS
BURLINGTON     CLOUDY    34  31  88 SE16G24   29.99F WCI  24
FAIRFIELD *    CLOUDY    36  32  87 SE16G23   29.93F WCI  26
FORT MADISON * CLOUDY    34  32  93 SE12G22   29.98F WCI  25
KEOKUK *       CLOUDY    36  32  87 SE14G21   29.97F WCI  27
OSKALOOSA *    CLOUDY    35  32  88 SE13      29.91S WCI  26
OTTUMWA        CLOUDY    37  32  82 SE14G21   29.91F WCI  28
WASHINGTON *   CLOUDY    34  34 100 SE15G24   29.97F WCI  24
$$

ABBREVIATIONS USED IN REMARKS
   TC - TEMPERATURES IN CELSIUS
  WCI - WIND CHILL INDEX
   HX - HEAT INDEX
  VSB - VISIBILITY
$$





USA.gov is the U.S. government's official web portal to all federal, state and local government web resources and services.